Location: Atlantic Beach
(40.5890°N, 73.7290°W)
Time: 01:12:10
(UTC+00:00)

Envisat - Pass Details

Date: 24 January 2021
Orbit: 764 x 766 km, 98.1° (Epoch: 03 March)

Event Time Altitude Azimuth Distance (km) Brightness Sun altitude
Rises 10:12:58 0° 19° (NNE) 3,240 6.4 -22.4°
Reaches altitude 10° 10:15:23 10° 25° (NNE) 2,309 5.7 -21.9°
Maximum altitude 10:20:16 46° 99° (E) 1,024 4.1 -21.0°
Drops below altitude 10° 10:25:07 10° 172° (S) 2,293 5.7 -20.1°
Sets 10:27:29 0° 178° (S) 3,214 6.4 -19.6°
